Wind_Speed
18 18 18 18 18 18 18 18 18 18 19 19 19 20 20 21 21 22 23 22 22 22 23 22 22 21 20 20 19 18 16 16 15 13 12 11 10 8 7 7 7 7 8 8
18 18 18 18 18 18 18 18 18 19 19 20 20 20 21 21 21 22 22 23 23 22 22 22 22 22 21 21 20 19 18 17 16 15 14 13 12 11 9 8 8 8 8 9
17 18 18 17 17 17 18 17 18 19 19 20 20 20 21 21 21 22 22 22 22 21 21 21 21 21 21 21 21 21 20 19 18 17 16 15 13 12 11 11 10 10 10 10
17 17 17 17 17 17 17 17 17 17 18 19 20 20 20 21 20 20 20 21 21 21 21 21 21 21 21 21 22 21 21 21 21 20 19 18 17 15 14 13 12 12 13 12
17 16 17 17 16 16 16 16 16 16 17 17 18 18 19 19 19 19 19 20 20 20 20 20 21 21 21 22 22 22 22 22 22 22 21 21 20 18 17 17 16 15 14 13
15 16 16 16 16 15 15 15 14 14 15 15 16 16 16 16 17 17 18 18 19 19 19 19 20 20 20 21 22 22 22 23 23 23 23 23 23 21 20 20 19 18 17 15
13 14 15 15 15 14 13 13 13 12 13 13 13 14 14 15 15 16 17 18 18 18 18 18 19 20 20 20 21 21 22 23 24 24 24 24 24 23 23 22 22 21 20 18
10 12 13 14 14 14 12 12 11 11 10 10 11 11 12 13 14 15 15 17 18 18 18 18 18 19 20 20 20 20 21 22 23 23 24 24 24 25 25 24 24 24 23 22
8 8 10 12 12 13 12 11 10 9 9 8 8 8 9 10 12 13 14 15 16 17 17 17 18 19 20 20 20 20 20 21 22 23 23 23 24 24 25 25 25 25 25 24
7 6 7 8 10 11 11 11 10 9 8 7 7 7 7 8 9 11 13 13 14 15 16 16 17 18 19 20 20 20 20 21 21 22 23 23 23 24 24 25 26 26 26 26
7 7 6 6 7 8 9 10 9 9 8 8 8 7 7 8 8 9 11 12 13 13 14 15 16 16 17 18 19 20 20 21 21 21 22 23 23 23 24 25 25 26 27 27
9 8 7 6 6 6 7 8 8 8 8 8 8 8 8 8 8 9 10 11 11 11 12 13 14 14 15 17 18 19 20 20 21 21 21 22 22 23 24 24 24 25 26 27
11 11 10 8 7 6 6 6 6 7 7 7 7 8 8 8 8 9 10 10 11 11 11 11 12 13 13 14 16 17 18 20 21 21 22 21 22 22 23 23 24 24 25 25
13 12 12 10 9 8 7 6 6 6 6 6 6 7 8 8 9 9 9 10 11 11 11 10 11 11 12 13 14 15 16 18 19 20 21 21 21 22 22 22 23 23 24 24
16 15 13 12 11 11 10 9 8 7 6 6 6 6 7 7 8 9 9 9 10 11 11 11 10 11 11 11 12 13 14 16 17 18 20 21 21 21 21 22 22 22 22 22
19 17 16 14 13 13 12 12 11 10 8 7 7 6 6 7 7 8 9 9 9 10 10 11 11 11 10 10 10 11 13 14 15 16 18 19 20 20 21 21 21 21 21 21
23 21 19 18 16 15 15 14 13 12 11 11 10 9 8 8 8 8 8 9 9 10 10 10 11 11 10 10 10 10 11 12 13 14 15 17 18 19 20 20 20 20 19 19
26 25 23 22 20 19 18 17 16 15 14 13 13 12 11 11 10 10 9 9 9 10 10 10 10 10 10 11 10 10 10 11 11 12 13 14 16 17 18 18 19 18 18 18
30 28 27 26 24 23 22 21 20 18 17 16 15 15 14 14 13 12 12 11 11 10 10 11 10 10 10 11 11 11 10 10 10 11 11 12 13 14 15 16 16 17 16 16
33 32 31 29 28 27 26 25 24 23 21 20 19 18 17 16 16 15 14 14 13 13 12 12 12 11 11 11 12 12 12 11 11 11 10 10 11 11 12 13 14 14 14 14
37 36 35 33 32 31 30 29 28 27 26 24 23 22 21 20 19 18 18 17 16 15 15 14 14 13 13 13 13 13 13 12 12 12 11 11 10 10 10 10 11 11 11 11
40 40 39 38 37 36 35 34 33 32 31 29 28 27 26 25 24 23 22 20 19 19 19 18 17 16 16 15 15 15 14 14 14 13 13 12 11 11 10 9 9 9 9 9
44 44 43 43 42 42 40 39 38 37 36 34 33 32 31 30 28 27 26 25 23 23 22 22 21 20 20 19 18 18 17 17 16 15 14 14 13 12 12 11 10 9 9 8
50 49 49 48 48 47 46 45 43 42 41 39 38 37 36 35 34 32 31 30 28 28 27 26 25 24 24 23 22 21 21 20 19 18 18 17 16 15 14 14 13 12 11 10
55 54 54 53 53 52 51 50 49 48 46 45 44 43 41 40 39 38 37 35 34 33 32 32 31 30 29 28 27 26 25 24 23 22 21 20 20 19 18 17 16 15 15 15
60 59 58 58 57 57 56 56 55 53 52 51 50 49 47 46 45 44 42 41 40 38 38 37 36 35 34 33 31 30 29 28 27 26 25 24 24 23 22 21 21 20 19 18
65 64 63 63 62 62 61 61 60 59 58 57 56 55 53 52 51 50 48 47 45 44 43 42 41 40 39 38 36 35 34 33 32 31 30 29 28 27 27 26 25 25 24 23
Wind_Direction
32 30 29 29 31 35 39 41 42 42 43 42 41 44 48 51 53 55 56 57 58 57 56 55 53 51 51 50 48 47 46 44 40 36 32 26 19 12 1 348 336 322 308 297
32 30 29 30 34 38 41 44 47 48 48 47 47 50 52 54 55 56 58 58 57 56 55 53 51 50 48 47 46 44 42 39 36 32 28 23 18 11 4 354 343 332 320 307
31 30 30 33 35 39 42 46 48 50 50 52 52 54 56 58 59 59 59 57 55 54 53 51 49 47 46 44 43 42 40 38 35 33 30 25 20 15 9 1 354 344 333 317
29 30 32 33 37 41 44 47 51 53 53 54 55 57 59 61 60 58 56 54 53 53 52 50 48 45 43 41 40 39 38 36 35 34 32 30 27 23 18 11 0 350 341 329
26 28 31 33 36 39 43 47 52 56 56 57 58 59 60 58 57 56 54 53 52 51 48 46 44 43 41 39 38 38 38 37 37 35 34 33 31 29 25 20 13 4 355 345
24 26 29 31 35 39 42 48 51 57 58 59 60 59 57 56 56 54 51 49 47 46 44 42 41 40 39 38 37 37 38 38 37 36 35 34 33 31 28 24 19 13 6 360
18 22 26 28 32 36 42 44 50 58 61 60 59 59 57 54 53 49 47 45 44 43 42 41 40 39 37 37 37 36 36 36 36 36 35 34 33 32 30 27 24 21 17 11
7 16 22 25 28 32 36 40 47 54 60 61 59 56 53 51 49 46 44 42 42 42 42 42 41 39 37 35 35 34 34 35 34 34 33 33 33 32 31 29 27 26 23 20
349 3 14 22 27 29 32 37 41 46 52 57 55 51 48 46 44 41 39 38 38 39 40 40 39 37 35 34 34 33 32 33 33 32 32 31 31 31 31 31 30 29 27 26
318 334 353 8 17 23 28 33 36 39 42 44 45 43 40 37 35 34 33 34 34 35 36 36 35 34 34 34 33 32 31 30 30 30 30 30 30 30 31 32 32 31 31 30
291 302 319 340 358 10 18 24 29 31 34 35 36 35 32 29 28 28 28 28 29 30 31 31 32 32 31 32 32 30 29 28 27 27 28 29 29 30 30 31 32 32 32 33
277 280 288 304 321 341 359 10 17 21 24 26 28 29 28 26 24 22 22 22 23 23 22 23 25 26 27 28 28 29 28 27 26 25 26 26 27 28 29 30 32 33 34 35
271 271 273 279 289 302 321 343 359 6 12 17 21 23 24 24 22 21 20 20 20 19 17 17 19 21 22 23 24 25 26 26 26 25 26 26 26 27 28 29 31 33 35 37
267 268 268 270 274 280 289 302 321 340 351 359 6 12 16 19 20 19 19 18 17 17 15 14 14 14 14 16 18 20 22 23 24 24 26 27 27 27 28 29 30 33 36 39
264 265 266 266 268 271 275 279 286 298 315 328 339 349 359 5 8 11 11 10 11 12 14 13 10 8 9 10 11 13 16 18 20 22 24 26 27 28 29 29 30 33 37 40
261 262 263 265 266 267 269 271 273 277 284 294 304 315 329 341 350 356 0 2 2 2 4 7 8 6 6 6 5 7 10 13 17 19 21 24 26 28 29 30 32 34 38 41
259 259 260 262 263 264 265 267 269 271 275 278 284 290 299 310 322 334 343 350 353 353 353 356 359 1 1 360 359 360 2 6 10 15 18 20 23 25 28 30 33 35 38 42
256 257 257 258 259 260 262 264 267 269 270 273 276 279 284 291 299 307 316 325 334 342 347 349 349 349 352 355 354 353 355 358 1 6 11 14 18 22 25 28 31 34 38 41
255 255 255 255 256 257 258 261 263 266 268 270 272 274 277 281 285 291 297 304 311 317 324 331 336 337 338 342 344 344 343 346 350 353 357 3 8 13 19 23 27 31 35 39
253 254 254 254 254 255 256 258 260 262 265 267 269 271 273 275 278 281 284 289 295 301 306 312 316 319 323 327 330 333 333 332 333 338 343 346 352 359 6 12 18 23 28 34
251 251 252 252 252 253 254 255 257 259 261 263 265 267 269 271 273 276 278 281 285 288 292 296 301 305 308 311 315 318 321 324 324 324 326 329 333 338 345 354 1 8 15 21
249 250 250 251 252 252 253 253 254 256 258 260 262 264 266 268 270 272 274 277 279 281 284 286 289 293 297 300 302 305 307 310 313 314 314 314 316 318 321 326 335 342 349 358
247 248 249 250 251 252 252 253 254 255 256 258 260 262 264 266 268 270 273 274 276 278 280 282 283 285 288 290 293 295 296 298 299 301 303 304 304 305 306 306 308 313 319 323
246 247 248 249 250 251 253 254 255 256 257 259 260 262 263 265 266 268 270 273 275 276 278 279 280 281 283 284 286 288 289 290 290 291 291 292 294 296 296 295 293 292 293 296
244 246 247 248 250 252 253 255 256 257 259 260 261 262 263 264 266 267 269 271 272 274 275 276 278 279 280 281 283 283 284 285 285 285 285 285 285 286 287 288 288 286 283 281
243 244 246 247 249 251 253 254 256 257 259 260 261 262 263 265 266 267 268 270 271 272 274 275 277 278 279 280 280 281 281 281 281 281 281 280 280 280 280 280 280 281 280 278
242 243 244 245 247 249 251 253 254 256 258 259 261 262 263 264 265 267 268 269 270 271 272 273 275 276 276 277 278 278 278 279 279 278 277 277 277 276 276 276 275 275 275 275
Height
5866 5863 5860 5857 5853 5850 5846 5843 5839 5836 5833 5829 5826 5822 5819 5816 5813 5810 5807 5805 5802 5800 5797 5795 5793 5791 5788 5786 5784 5782 5781 5779 5778 5776 5774 5773 5772 5770 5769 5768 5767 5767 5766 5765
5869 5866 5863 5860 5856 5853 5849 5846 5843 5839 5837 5833 5830 5826 5823 5820 5818 5815 5812 5810 5808 5805 5803 5801 5798 5796 5793 5791 5788 5786 5784 5782 5780 5778 5776 5774 5772 5770 5769 5768 5766 5765 5764 5763
5872 5869 5866 5863 5859 5856 5853 5849 5846 5843 5841 5837 5834 5831 5828 5825 5823 5820 5818 5816 5813 5811 5808 5806 5803 5801 5798 5795 5793 5790 5787 5785 5782 5779 5777 5775 5773 5771 5769 5767 5765 5763 5761 5760
5874 5872 5869 5868 5862 5859 5856 5853 5850 5847 5844 5841 5838 5836 5833 5830 5828 5826 5823 5821 5819 5816 5814 5811 5808 5806 5803 5800 5797 5794 5791 5788 5785 5782 5779 5776 5774 5771 5769 5767 5764 5762 5759 5756
5877 5874 5871 5869 5865 5861 5859 5856 5853 5850 5848 5845 5843 5840 5838 5835 5833 5831 5829 5826 5824 5821 5819 5816 5813 5810 5807 5804 5801 5798 5794 5791 5788 5785 5782 5779 5775 5772 5770 5767 5763 5760 5757 5754
5879 5876 5874 5872 5868 5864 5862 5859 5857 5854 5851 5849 5847 5845 5843 5840 5838 5836 5833 5831 5828 5825 5823 5820 5817 5814 5811 5808 5805 5802 5798 5795 5792 5788 5785 5781 5778 5774 5771 5767 5764 5760 5756 5752
5881 5878 5876 5873 5870 5867 5865 5864 5860 5857 5855 5853 5851 5849 5847 5844 5842 5840 5837 5835 5832 5829 5827 5824 5821 5818 5815 5812 5809 5806 5802 5799 5795 5792 5788 5784 5781 5777 5773 5769 5765 5760 5756 5752
5882 5880 5880 5875 5872 5870 5868 5864 5862 5859 5857 5856 5854 5852 5850 5847 5845 5843 5841 5838 5836 5833 5830 5828 5825 5822 5819 5816 5813 5810 5806 5803 5799 5795 5792 5788 5784 5780 5776 5771 5767 5762 5757 5752
5883 5883 5879 5876 5874 5872 5869 5866 5863 5861 5859 5858 5856 5854 5852 5850 5848 5846 5844 5841 5839 5836 5834 5831 5828 5825 5822 5819 5816 5813 5810 5806 5803 5799 5795 5791 5787 5783 5779 5774 5770 5765 5759 5754
5882 5881 5879 5877 5875 5873 5870 5868 5865 5863 5861 5859 5858 5856 5854 5852 5851 5849 5846 5844 5842 5839 5836 5834 5831 5828 5826 5823 5819 5816 5813 5810 5806 5803 5799 5795 5791 5786 5782 5778 5773 5768 5762 5757
5880 5879 5878 5877 5875 5873 5871 5869 5867 5865 5863 5861 5859 5857 5856 5854 5852 5850 5848 5846 5844 5841 5839 5836 5834 5831 5828 5825 5822 5819 5816 5813 5809 5806 5802 5798 5794 5790 5786 5781 5776 5772 5766 5761
5878 5878 5877 5876 5874 5873 5871 5869 5868 5866 5864 5862 5860 5858 5856 5855 5853 5851 5849 5847 5845 5843 5840 5838 5836 5833 5830 5828 5825 5822 5819 5816 5812 5809 5805 5801 5797 5793 5789 5785 5780 5775 5771 5765
5875 5875 5874 5873 5873 5872 5870 5869 5868 5866 5864 5863 5861 5859 5857 5856 5854 5852 5850 5848 5846 5844 5841 5839 5837 5835 5832 5830 5827 5824 5821 5818 5815 5811 5808 5804 5800 5796 5792 5788 5784 5780 5775 5770
5871 5871 5871 5870 5870 5869 5869 5868 5867 5865 5864 5863 5861 5859 5858 5856 5854 5852 5851 5849 5846 5844 5842 5840 5838 5836 5833 5831 5829 5826 5824 5821 5818 5814 5811 5807 5803 5800 5796 5792 5788 5784 5780 5776
5867 5868 5868 5867 5867 5866 5866 5865 5865 5864 5863 5862 5861 5859 5858 5856 5854 5852 5851 5849 5847 5845 5842 5840 5838 5836 5834 5832 5830 5828 5825 5823 5820 5817 5813 5810 5806 5803 5799 5796 5792 5788 5785 5781
5862 5863 5863 5863 5863 5863 5863 5862 5862 5861 5861 5860 5859 5858 5857 5855 5854 5852 5850 5849 5847 5845 5843 5841 5838 5836 5834 5832 5830 5828 5826 5824 5821 5819 5816 5813 5809 5806 5803 5799 5796 5793 5789 5786
5856 5856 5857 5858 5858 5858 5858 5858 5858 5858 5857 5857 5856 5855 5854 5853 5852 5851 5849 5848 5846 5844 5842 5841 5838 5836 5834 5832 5830 5829 5827 5825 5823 5820 5818 5815 5812 5809 5806 5803 5800 5797 5794 5791
5848 5849 5851 5852 5852 5853 5853 5853 5853 5853 5853 5853 5852 5852 5851 5850 5850 5849 5848 5846 5845 5843 5842 5840 5838 5836 5834 5832 5830 5828 5827 5825 5823 5821 5819 5817 5814 5812 5809 5806 5803 5800 5798 5795
5840 5842 5843 5844 5845 5846 5847 5847 5848 5848 5848 5848 5848 5847 5847 5846 5846 5845 5844 5843 5842 5841 5840 5838 5837 5835 5833 5831 5830 5828 5826 5824 5823 5821 5819 5818 5816 5813 5811 5809 5806 5804 5801 5799
5831 5833 5834 5836 5837 5838 5839 5840 5841 5841 5842 5842 5842 5842 5841 5841 5841 5841 5840 5840 5839 5838 5837 5836 5835 5833 5832 5830 5828 5827 5825 5823 5822 5820 5819 5817 5816 5814 5812 5810 5808 5806 5804 5802
5821 5823 5824 5826 5828 5829 5830 5832 5832 5833 5834 5835 5835 5835 5835 5835 5835 5835 5835 5835 5834 5834 5833 5832 5831 5830 5829 5828 5826 5825 5823 5822 5820 5819 5818 5816 5815 5814 5812 5811 5809 5807 5806 5804
5809 5811 5813 5815 5817 5818 5820 5821 5823 5824 5825 5826 5827 5828 5828 5828 5828 5828 5828 5829 5829 5828 5828 5827 5827 5826 5825 5824 5823 5822 5821 5819 5818 5816 5815 5814 5813 5812 5811 5810 5809 5807 5806 5804
5795 5797 5800 5802 5804 5806 5808 5810 5812 5813 5815 5816 5818 5819 5820 5820 5821 5821 5821 5822 5822 5822 5821 5821 5821 5821 5820 5819 5818 5818 5817 5816 5814 5813 5812 5811 5810 5809 5809 5808 5807 5806 5805 5804
5779 5782 5785 5787 5790 5792 5795 5797 5799 5802 5804 5806 5807 5808 5810 5811 5812 5812 5813 5814 5814 5814 5814 5814 5814 5814 5813 5813 5812 5812 5811 5810 5810 5809 5808 5807 5806 5806 5805 5804 5803 5803 5802 5801
5763 5766 5769 5772 5775 5778 5781 5783 5786 5789 5791 5793 5795 5797 5798 5800 5801 5802 5803 5804 5805 5805 5805 5805 5805 5805 5805 5805 5805 5805 5805 5804 5804 5803 5802 5802 5801 5801 5800 5799 5799 5798 5798 5797
5746 5750 5753 5756 5759 5762 5765 5768 5771 5774 5776 5779 5781 5783 5785 5787 5788 5790 5791 5792 5793 5794 5794 5795 5795 5796 5796 5796 5796 5796 5796 5796 5796 5796 5795 5795 5794 5794 5794 5793 5793 5792 5792 5791
5726 5730 5735 5738 5742 5745 5748 5751 5754 5757 5760 5762 5765 5767 5769 5771 5773 5775 5777 5778 5780 5781 5782 5783 5783 5784 5785 5785 5786 5786 5786 5786 5787 5787 5787 5786 5786 5786 5786 5785 5785 5785 5785 5784